Weather History for KMPV - July, 2014

Change the Weather History Date:

Monday, July 7, 2014

  Actual Average Record
Temperature  
Mean Temperature 66 °F 67 °F  
Max Temperature 78 °F 79 °F 92 °F (2010)
Min Temperature 54 °F 56 °F 35 °F (1965)
Cooling Degree Days 1 3  
Month to date cooling degree days 43 21  
Year to date cooling degree days 74 84  
Since 1 June cooling degree days 73 74  
Growing Degree Days 15 (Base 50)    
Moisture  
Dew Point 59 °F    
Average Humidity 73    
Maximum Humidity 86    
Minimum Humidity 60    
Precipitation  
Precipitation T in 0.12 in 1.49 in (1984)
Month to date precipitation 0.57 0.82  
Year to date precipitation 17.19 17.53  
Sea Level Pressure  
Sea Level Pressure 29.77 in    
Wind  
Wind Speed 8 mph (South)    
Max Wind Speed 17 mph    
Max Gust Speed 23 mph    
Visibility 10 miles    
Events Rain    
T = Trace of Precipitation, MM = Missing Value Source: NWS Daily Summary

Daily Weather History Graph

Daily Weather History Graph

Search for Another Location

Airport or City:

Trip Planner

Search our weather history database for the weather conditions in past years. The results will help you decide how hot, cold, wet, or windy it might be!

Date:

Astronomy

Jul. 07, 2014 Rise Set
Actual Time 5:14 AM EDT 8:35 PM EDT
Civil Twilight 4:38 AM EDT 9:11 PM EDT
Nautical Twilight 3:51 AM EDT 9:58 PM EDT
Astronomical Twilight 2:52 AM EDT 10:56 PM EDT
Moon 3:30 PM EDT (7/7) 1:12 AM EDT (7/7)
Length of Visible Light 16h 33m
Length of Day
15h 21m
Waxing Gibbous, 72% of the Moon is Illuminated
Jul 7
Waxing Gibbous
Jul 12
Full
Jul 18
Last Quarter
Jul 26
New
Aug 3
First Quarter

Hourly Weather History & Observations

Time (EDT) Temp. Dew Point Humidity Pressure Visibility Wind Dir Wind Speed Gust Speed Precip Events Conditions
12:51 AM 60.8 °F 51.8 °F 72% 29.87 in 10.0 mi SSE 5.8 mph - N/A   Clear
1:51 AM 62.1 °F 51.1 °F 67% 29.85 in 10.0 mi South 5.8 mph - N/A   Clear
2:51 AM 57.0 °F 53.1 °F 87% 29.85 in 10.0 mi Calm Calm - N/A   Clear
3:51 AM 55.0 °F 52.0 °F 89% 29.84 in 10.0 mi Calm Calm - N/A   Clear
4:51 AM 61.0 °F 54.0 °F 78% 29.82 in 10.0 mi South 11.5 mph - N/A   Clear
5:51 AM 62.1 °F 53.1 °F 72% 29.82 in 10.0 mi South 6.9 mph - N/A   Clear
6:51 AM 63.0 °F 54.0 °F 72% 29.82 in 10.0 mi SSE 8.1 mph - N/A   Mostly Cloudy
7:51 AM 64.9 °F 54.0 °F 68% 29.81 in 10.0 mi South 9.2 mph - N/A   Partly Cloudy
8:51 AM 66.9 °F 55.0 °F 66% 29.81 in 10.0 mi South 10.4 mph - N/A   Overcast
9:51 AM 69.1 °F 55.9 °F 63% 29.79 in 10.0 mi South 9.2 mph - N/A   Clear
10:51 AM 71.1 °F 59.0 °F 66% 29.78 in 10.0 mi South 6.9 mph - N/A   Clear
11:51 AM 73.9 °F 59.0 °F 59% 29.76 in 10.0 mi SSW 11.5 mph 19.6 mph N/A   Mostly Cloudy
12:51 PM 75.0 °F 61.0 °F 62% 29.74 in 10.0 mi South 5.8 mph - 0.00 in   Partly Cloudy
1:51 PM 73.0 °F 61.0 °F 66% 29.73 in 10.0 mi SSW 8.1 mph - N/A   Overcast
2:51 PM 75.0 °F 64.9 °F 71% 29.71 in 10.0 mi SSW 10.4 mph - 0.00 in   Scattered Clouds
3:51 PM 72.0 °F 64.0 °F 76% 29.71 in 9.0 mi SSW 12.7 mph 19.6 mph 0.00 in Rain Light Rain
4:51 PM 73.9 °F 63.0 °F 68% 29.70 in 10.0 mi WSW 10.4 mph 21.9 mph 0.00 in   Overcast
5:51 PM 73.9 °F 63.0 °F 68% 29.69 in 10.0 mi SSW 9.2 mph - N/A   Mostly Cloudy
6:51 PM 75.9 °F 64.0 °F 67% 29.69 in 10.0 mi South 5.8 mph - N/A   Mostly Cloudy
7:51 PM 73.9 °F 64.0 °F 71% 29.69 in 10.0 mi South 8.1 mph - N/A   Overcast
8:51 PM 73.0 °F 64.9 °F 76% 29.70 in 10.0 mi South 10.4 mph - N/A   Mostly Cloudy
9:51 PM 71.1 °F 64.9 °F 81% 29.72 in 10.0 mi SSW 5.8 mph - N/A   Clear
10:51 PM 71.1 °F 64.9 °F 81% 29.74 in 10.0 mi SSW 5.8 mph - N/A   Clear
11:51 PM 72.0 °F 64.9 °F 78% 29.72 in 10.0 mi SSW 8.1 mph - N/A   Clear